Tiempo cada hora Muriaé

Hoy, 27 Octubre, Martes

Tiempo Temperatura Precipitaciones Viento Presión Humedad
00:00 +22°C° 0 mm 1 mps 736 mmHg 97%
01:00 +22°C° 0 mm 1 mps 736 mmHg 97%
02:00 +21°C° 0 mm 1 mps 735 mmHg 97%
03:00 +19°C° 0 mm 0 mps 735 mmHg 97%
04:00 +20°C° 0 mm 0 mps 735 mmHg 96%
05:00 +20°C° 0 mm 0 mps 735 mmHg 94%
06:00 +20°C° 0 mm 0 mps 735 mmHg 93%
07:00 +22°C° 0 mm 0 mps 735 mmHg 85%
08:00 +24°C° 0 mm 0 mps 735 mmHg 77%
09:00 +26°C° 0 mm 0 mps 735 mmHg 69%
10:00 +28°C° 0 mm 0 mps 735 mmHg 64%
11:00 +31°C° 0 mm 1 mps 735 mmHg 59%
12:00 +33°C° 0 mm 1 mps 734 mmHg 54%
13:00 +33°C° 0 mm 1 mps 733 mmHg 53%
14:00 +33°C° 0 mm 1 mps 733 mmHg 53%
15:00 +33°C° 0 mm 1 mps 732 mmHg 52%
16:00 +32°C° 0.1 mm 1 mps 732 mmHg 59%
17:00 +30°C° 0.1 mm 1 mps 732 mmHg 66%
18:00 +28°C° 0.1 mm 1 mps 732 mmHg 72%
19:00 +27°C° 0.4 mm 1 mps 733 mmHg 77%
20:00 +27°C° 0.4 mm 1 mps 733 mmHg 81%
21:00 +24°C° 0.4 mm 0 mps 734 mmHg 86%
22:00 +23°C° 0.1 mm 0 mps 734 mmHg 87%
23:00 +23°C° 0.1 mm 0 mps 734 mmHg 88%

Mañana, 28 Octubre, Miércoles

Tiempo Temperatura Precipitaciones Viento Presión Humedad
00:00 +23°C° 0.1 mm 0 mps 734 mmHg 89%
01:00 +23°C° 0 mm 0 mps 734 mmHg 90%
02:00 +22°C° 0 mm 0 mps 734 mmHg 90%
03:00 +22°C° 0 mm 0 mps 733 mmHg 91%
04:00 +22°C° 0 mm 0 mps 734 mmHg 90%
05:00 +23°C° 0 mm 0 mps 734 mmHg 89%
06:00 +23°C° 0 mm 0 mps 735 mmHg 88%
07:00 +28°C° 0 mm 1 mps 735 mmHg 79%
08:00 +30°C° 0 mm 1 mps 735 mmHg 70%
09:00 +32°C° 0 mm 1 mps 735 mmHg 62%
10:00 +33°C° 0.1 mm 1 mps 735 mmHg 57%
11:00 +35°C° 0.1 mm 2 mps 735 mmHg 53%
12:00 +37°C° 0.1 mm 3 mps 734 mmHg 48%
13:00 +37°C° 0 mm 2 mps 734 mmHg 48%
14:00 +37°C° 0 mm 2 mps 733 mmHg 47%
15:00 +37°C° 0 mm 2 mps 733 mmHg 47%
16:00 +35°C° 0 mm 2 mps 733 mmHg 53%
17:00 +32°C° 0 mm 2 mps 734 mmHg 59%
18:00 +30°C° 0 mm 1 mps 734 mmHg 66%
19:00 +30°C° 0 mm 1 mps 734 mmHg 68%
20:00 +29°C° 0 mm 1 mps 735 mmHg 70%
21:00 +28°C° 0 mm 1 mps 735 mmHg 72%
22:00 +27°C° 0.3 mm 1 mps 735 mmHg 75%
23:00 +27°C° 0.3 mm 1 mps 735 mmHg 78%

Pasado mañana, 29 Octubre, Jueves

Tiempo Temperatura Precipitaciones Viento Presión Humedad
00:00 +24°C° 0.3 mm 0 mps 735 mmHg 80%
01:00 +24°C° 0.1 mm 0 mps 735 mmHg 81%
02:00 +24°C° 0.1 mm 0 mps 735 mmHg 81%
03:00 +24°C° 0.1 mm 0 mps 735 mmHg 81%
04:00 +24°C° 0.3 mm 0 mps 736 mmHg 82%
05:00 +24°C° 0.3 mm 0 mps 736 mmHg 83%
06:00 +24°C° 0.3 mm 0 mps 737 mmHg 84%
07:00 +26°C° 0.4 mm 0 mps 737 mmHg 76%
08:00 +28°C° 0.4 mm 0 mps 737 mmHg 69%
09:00 +30°C° 0.4 mm 0 mps 738 mmHg 61%
10:00 +33°C° 0.1 mm 1 mps 737 mmHg 56%
11:00 +35°C° 0.1 mm 1 mps 737 mmHg 51%
12:00 +36°C° 0.1 mm 1 mps 737 mmHg 45%
13:00 +36°C° 0 mm 1 mps 736 mmHg 46%
14:00 +35°C° 0 mm 1 mps 736 mmHg 47%
15:00 +35°C° 0 mm 1 mps 736 mmHg 47%
16:00 +33°C° 0.2 mm 1 mps 736 mmHg 53%
17:00 +32°C° 0.2 mm 1 mps 736 mmHg 59%
18:00 +30°C° 0.2 mm 1 mps 736 mmHg 65%
19:00 +29°C° 0.1 mm 1 mps 736 mmHg 69%
20:00 +29°C° 0.1 mm 1 mps 737 mmHg 72%
21:00 +28°C° 0.1 mm 1 mps 737 mmHg 76%
22:00 +27°C° 0.8 mm 1 mps 737 mmHg 78%
23:00 +27°C° 0.8 mm 1 mps 737 mmHg 81%

30 Octubre, Viernes

Tiempo Temperatura Precipitaciones Viento Presión Humedad
00:00 +27°C° 0.8 mm 1 mps 737 mmHg 83%
01:00 +26°C° 1.4 mm 1 mps 737 mmHg 86%
02:00 +26°C° 1.4 mm 1 mps 737 mmHg 89%
03:00 +25°C° 1.4 mm 1 mps 737 mmHg 92%
04:00 +25°C° 1.4 mm 1 mps 737 mmHg 93%
05:00 +25°C° 1.4 mm 1 mps 737 mmHg 94%
06:00 +23°C° 1.4 mm 0 mps 738 mmHg 95%
07:00 +23°C° 0.9 mm 0 mps 738 mmHg 94%
08:00 +26°C° 0.9 mm 1 mps 738 mmHg 92%
09:00 +26°C° 0.9 mm 1 mps 739 mmHg 90%
10:00 +26°C° 0.9 mm 1 mps 738 mmHg 90%
11:00 +24°C° 0.9 mm 0 mps 738 mmHg 90%
12:00 +24°C° 0.9 mm 0 mps 738 mmHg 90%
13:00 +26°C° 0.9 mm 1 mps 738 mmHg 90%
14:00 +27°C° 0.9 mm 1 mps 737 mmHg 90%
15:00 +27°C° 0.9 mm 1 mps 737 mmHg 90%
16:00 +26°C° 1.3 mm 1 mps 737 mmHg 92%
17:00 +25°C° 1.3 mm 2 mps 737 mmHg 93%
18:00 +25°C° 1.3 mm 2 mps 738 mmHg 94%
19:00 +24°C° 2 mm 2 mps 738 mmHg 95%
20:00 +24°C° 2 mm 2 mps 739 mmHg 96%
21:00 +23°C° 2 mm 1 mps 739 mmHg 96%
22:00 +23°C° 4.9 mm 2 mps 739 mmHg 96%
23:00 +21°C° 4.9 mm 2 mps 739 mmHg 96%

31 Octubre, Sábado

Tiempo Temperatura Precipitaciones Viento Presión Humedad
00:00 +21°C° 4.9 mm 2 mps 739 mmHg 96%
01:00 +21°C° 2.9 mm 2 mps 739 mmHg 96%
02:00 +21°C° 2.9 mm 2 mps 739 mmHg 97%
03:00 +21°C° 2.9 mm 2 mps 738 mmHg 97%
04:00 +21°C° 0.7 mm 1 mps 739 mmHg 96%
05:00 +21°C° 0.7 mm 1 mps 739 mmHg 96%
06:00 +21°C° 0.7 mm 1 mps 740 mmHg 96%
07:00 +21°C° 0.3 mm 1 mps 740 mmHg 94%
08:00 +22°C° 0.3 mm 1 mps 740 mmHg 93%
09:00 +22°C° 0.3 mm 1 mps 740 mmHg 92%
10:00 +23°C° 0.1 mm 1 mps 740 mmHg 89%
11:00 +23°C° 0.1 mm 1 mps 740 mmHg 86%
12:00 +24°C° 0.1 mm 1 mps 740 mmHg 84%
13:00 +24°C° 0.1 mm 1 mps 740 mmHg 83%
14:00 +24°C° 0.1 mm 1 mps 739 mmHg 83%
15:00 +24°C° 0.1 mm 1 mps 739 mmHg 83%
16:00 +23°C° 0.2 mm 1 mps 739 mmHg 86%
17:00 +23°C° 0.2 mm 1 mps 739 mmHg 89%
18:00 +22°C° 0.2 mm 1 mps 740 mmHg 91%
19:00 +22°C° 0.2 mm 1 mps 740 mmHg 92%
20:00 +22°C° 0.2 mm 1 mps 740 mmHg 94%
21:00 +21°C° 0.2 mm 1 mps 740 mmHg 95%
22:00 +21°C° 0.1 mm 1 mps 740 mmHg 95%
23:00 +21°C° 0.1 mm 1 mps 740 mmHg 95%

1 Noviembre, Domingo

Tiempo Temperatura Precipitaciones Viento Presión Humedad
00:00 +21°C° 0.1 mm 1 mps 740 mmHg 94%
01:00 +21°C° 0.1 mm 1 mps 740 mmHg 94%
02:00 +19°C° 0.1 mm 0 mps 739 mmHg 94%
03:00 +19°C° 0.1 mm 0 mps 739 mmHg 94%
04:00 +19°C° 0.1 mm 0 mps 739 mmHg 94%
05:00 +19°C° 0.1 mm 0 mps 740 mmHg 94%
06:00 +19°C° 0.1 mm 0 mps 740 mmHg 94%
07:00 +21°C° 0.1 mm 1 mps 740 mmHg 91%
08:00 +22°C° 0.1 mm 1 mps 740 mmHg 88%
09:00 +22°C° 0.1 mm 1 mps 740 mmHg 86%
10:00 +23°C° 0.1 mm 1 mps 740 mmHg 84%
11:00 +23°C° 0.1 mm 1 mps 740 mmHg 83%
12:00 +23°C° 0.1 mm 1 mps 739 mmHg 81%
13:00 +23°C° 0 mm 1 mps 739 mmHg 83%
14:00 +23°C° 0 mm 1 mps 739 mmHg 84%
15:00 +21°C° 0 mm 2 mps 738 mmHg 86%
16:00 +21°C° 0.1 mm 2 mps 738 mmHg 88%
17:00 +20°C° 0.1 mm 2 mps 738 mmHg 89%
18:00 +19°C° 0.1 mm 2 mps 739 mmHg 91%
19:00 +19°C° 0.3 mm 2 mps 739 mmHg 92%
20:00 +18°C° 0.3 mm 2 mps 739 mmHg 93%
21:00 +18°C° 0.3 mm 2 mps 740 mmHg 94%
22:00 +18°C° 1 mm 2 mps 740 mmHg 95%
23:00 +19°C° 1 mm 1 mps 740 mmHg 95%
Mostrar más

Necesitamos Su Consentimiento

Meteoprog y nuestros Proveedores de Servicios pueden almacenar y acceder a sus datos personales como cookies, identificadores de dispositivo u otras tecnologías similares de su dispositivo y procesar dichos datos para personalizar contenido y anuncios, además de ofrecer funciones de redes sociales y analizar el tráfico.

  • Almacenar y/o acceder a información en su dispositivo

    Se puede almacenar o acceder a cookies, identificadores de dispositivo u otra información de su dispositivo para los fines anteriormente indicados.

  • Anuncios y contenido personalizados, medición de anuncios y contenido, percepciones del público, y desarrollo de productos

    Los anuncios y el contenido pueden personalizarse en base a su perfil. Se pueden añadir más datos para personalizar mejor los anuncios y contenidos. Se puede medir el rendimiento de los anuncios y contenidos. Se puede obtener la percepción sobre el público que ha visto los anuncios y contenidos. Dichos datos pueden usarse para desarrollar o mejorar la experiencia del usuario, sistemas y software.

Al hacer clic en ‘Estoy De Acuerdo’ usted permitirá el uso de las cookies, identificadores de dispositivo, balizas web u otras tecnologías similares indicadas. Su configuración puede cambiarse desde el navegador de su dispositivo.

Para ciertos fines, los intereses legítimos pueden ser considerados por encima del consentimiento. Puede leer más sobre ello en nuestra Política de Privacidad y Cookies.